Monistrol de Calders





Hora UTC 08:30
Temperatura 7.3 ºC
Humedad 92.0 %
Presión 1025.5 hPa
Pluja 0.0 mm
Velocidad viento 0.0 km/h
Dirección viento WSW

Datos diarios 2019-12-07



Hora UTC (invierno +1h; verano +2h)
Temperatura (ºC) Humedad (%) Presión (hPa) Velocidad viento (km/h) Precipitación (mm)
Hora UTC Aire Humedad Presión Vel. Dir. Vel. Max Dir. Intent. máx 5 min.
00:05 8.1 92.0 1024.7 0.0 SE 0.0 0.0
00:10 8.1 93.0 1024.7 0.0 SE 0.0 0.0
00:15 8.1 93.0 1024.7 0.0 SE 0.0 0.0
00:20 8.1 93.0 1024.7 0.0 SE 0.0 0.0
00:25 8.1 92.0 1024.7 0.0 SE 0.0 0.0
00:30 8.1 93.0 1024.7 0.0 SE 0.0 0.0
00:35 8.1 93.0 1024.7 0.0 SE 0.0 0.0
00:40 8.1 93.0 1024.7 0.0 SE 0.0 0.0
00:45 8.2 93.0 1024.6 0.0 SE 0.0 0.0
00:50 8.2 93.0 1024.6 0.0 SE 0.0 0.0
00:55 8.2 93.0 1024.7 0.0 SE 0.0 0.0
01:00 8.2 93.0 1024.6 0.0 SE 0.0 0.0
01:05 8.2 93.0 1024.7 0.0 SE 0.0 0.0
01:10 8.2 93.0 1024.6 0.0 SE 0.0 0.0
01:15 8.2 93.0 1024.6 0.0 SE 0.0 0.0
01:20 8.2 93.0 1024.5 0.0 SE 0.0 0.0
01:25 8.2 93.0 1024.4 0.0 SE 0.0 0.0
01:30 8.2 93.0 1024.5 0.0 SE 0.0 0.0
01:35 8.2 93.0 1024.6 0.0 SE 0.0 0.0
01:40 8.3 93.0 1024.6 0.0 SE 0.0 0.0
01:45 8.3 93.0 1024.7 0.0 SE 0.0 0.0
01:50 8.3 93.0 1024.7 0.0 SE 0.0 0.0
01:55 8.3 93.0 1024.7 0.0 SE 0.0 0.0
02:00 8.3 93.0 1024.7 0.0 SE 0.0 0.0
02:05 8.3 93.0 1024.7 0.0 SE 0.0 0.0
02:10 8.3 93.0 1024.7 0.0 SE 0.0 0.0
02:15 8.3 92.0 1024.7 0.0 SE 0.0 0.0
02:20 8.3 92.0 1024.7 0.0 SE 1.6 0.0
02:25 8.3 92.0 1024.7 0.0 WNW 1.6 0.0
02:30 8.3 92.0 1024.7 0.0 WNW 1.6 0.0
02:35 8.3 92.0 1024.7 0.0 WNW 1.6 0.0
02:40 8.3 92.0 1024.8 0.0 WNW 0.0 0.0
02:45 8.3 92.0 1024.8 0.0 WNW 3.2 0.0
02:50 8.3 92.0 1024.8 0.0 WNW 3.2 0.0
02:55 8.3 92.0 1024.7 0.0 NW 3.2 0.0
03:00 8.2 92.0 1024.7 0.0 NW 3.2 0.0
03:05 8.2 92.0 1024.6 0.0 NW 1.6 0.0
03:10 8.2 92.0 1024.6 0.0 NW 1.6 0.0
03:15 8.2 92.0 1024.5 0.0 NW 1.6 0.0
03:20 8.2 92.0 1024.3 0.0 NW 0.0 0.0
03:25 8.1 92.0 1024.2 0.0 NW 0.0 0.0
03:30 8.1 92.0 1024.2 0.0 NW 0.0 0.0
03:35 8.1 92.0 1024.1 0.0 NW 0.0 0.0
03:40 8.0 92.0 1024.1 0.0 NW 0.0 0.0
03:45 8.1 92.0 1024.1 0.0 NW 0.0 0.0
03:50 8.0 91.0 1024.1 0.0 NW 0.0 0.0
03:55 8.0 91.0 1024.0 0.0 NW 0.0 0.0
04:00 8.0 91.0 1023.9 0.0 NW 0.0 0.0
04:05 7.9 91.0 1023.9 0.0 NW 0.0 0.0
04:10 7.9 91.0 1024.0 0.0 NW 0.0 0.0
04:15 7.9 91.0 1023.9 0.0 NW 0.0 0.0
04:20 7.9 91.0 1023.9 0.0 NW 0.0 0.0
04:25 7.9 91.0 1024.0 0.0 NW 0.0 0.0
04:30 7.8 91.0 1024.1 0.0 NW 0.0 0.0
04:35 7.8 91.0 1024.0 0.0 NW 0.0 0.0
04:40 7.8 91.0 1024.0 0.0 NW 0.0 0.0
04:45 7.8 91.0 1024.1 0.0 NW 0.0 0.0
04:50 7.8 91.0 1023.9 0.0 NW 0.0 0.0
04:55 7.8 91.0 1023.9 0.0 NW 0.0 0.0
05:00 7.8 91.0 1023.9 0.0 NW 0.0 0.0
05:05 7.8 91.0 1023.9 0.0 NW 0.0 0.0
05:10 7.8 91.0 1024.0 0.0 NW 0.0 0.0
05:15 7.8 91.0 1024.1 0.0 NW 0.0 0.0
05:20 7.8 91.0 1024.1 0.0 NW 0.0 0.0
05:25 7.8 91.0 1024.1 0.0 NW 0.0 0.0
05:30 7.8 92.0 1024.1 0.0 NW 0.0 0.0
05:35 7.8 91.0 1024.0 0.0 NW 0.0 0.0
05:40 7.7 91.0 1024.1 0.0 NW 0.0 0.0
05:45 7.7 91.0 1024.2 0.0 NW 1.6 0.0
05:50 7.7 91.0 1024.2 0.0 NW 0.0 0.0
05:55 7.7 91.0 1024.2 0.0 NW 0.0 0.0
06:00 7.7 91.0 1024.3 0.0 NW 1.6 0.0
06:05 7.7 91.0 1024.4 0.0 NW 1.6 0.0
06:10 7.7 91.0 1024.3 0.0 NW 1.6 0.0
06:15 7.7 91.0 1024.3 0.0 NW 1.6 0.0
06:20 7.7 91.0 1024.4 0.0 NW 0.0 0.0
06:25 7.7 91.0 1024.5 0.0 NW 0.0 0.0
06:30 7.7 91.0 1024.5 0.0 NW 1.6 0.0
06:35 7.7 91.0 1024.6 0.0 NW 0.0 0.0
06:40 7.6 91.0 1024.7 0.0 NW 0.0 0.0
06:45 7.6 91.0 1024.7 0.0 NW 1.6 0.0
06:50 7.6 91.0 1024.7 0.0 NW 1.6 0.0
06:55 7.5 91.0 1024.6 0.0 NW 1.6 0.0
07:00 7.5 91.0 1024.7 0.0 NW 1.6 0.0
07:05 7.5 91.0 1024.7 1.6 WSW 3.2 0.0
07:10 7.4 91.0 1024.7 0.0 WSW 3.2 0.0
07:15 7.4 91.0 1024.6 0.0 WSW 1.6 0.0
07:20 7.4 91.0 1024.8 0.0 WSW 0.0 0.0
07:25 7.4 91.0 1024.8 0.0 WSW 0.0 0.0
07:30 7.4 91.0 1024.8 0.0 WSW 1.6 0.0
07:35 7.4 91.0 1024.9 0.0 WSW 1.6 0.0
07:40 7.3 91.0 1025.0 0.0 WSW 0.0 0.0
07:45 7.3 91.0 1025.1 0.0 WSW 0.0 0.0
07:50 7.3 91.0 1025.1 0.0 WSW 0.0 0.0
07:55 7.3 91.0 1025.1 0.0 WSW 0.0 0.0
08:00 7.3 91.0 1025.3 0.0 WSW 0.0 0.0
08:05 7.3 92.0 1025.3 0.0 WSW 0.0 0.0
08:10 7.3 92.0 1025.3 0.0 WSW 0.0 0.0
08:15 7.3 92.0 1025.3 0.0 WSW 0.0 0.0
08:20 7.3 92.0 1025.4 0.0 WSW 0.0 0.0
08:25 7.3 92.0 1025.4 0.0 WSW 0.0 0.0
08:30 7.3 92.0 1025.5 0.0 WSW 0.0 0.0
Máxima 8.3 93.0 1025.5 1.6 WSW 3.2 0.0
Mínima 7.3 91.0 1023.9
Total 0.0